date,time,water_lv
2013-10-01,00:00:00,-
2013-10-01,00:10:00,49.6
2013-10-01,00:20:00,49.59
2013-10-01,00:30:00,49.58
2013-10-01,00:40:00,49.59
2013-10-01,00:50:00,49.59
2013-10-01,01:00:00,49.57
2013-10-01,01:10:00,49.57
2013-10-01,01:20:00,49.57
2013-10-01,01:30:00,49.58
2013-10-01,01:40:00,49.57
2013-10-01,01:50:00,49.56
2013-10-01,02:00:00,49.56
2013-10-01,02:10:00,49.56
2013-10-01,02:20:00,49.55
2013-10-01,02:30:00,49.55
2013-10-01,02:40:00,49.54
2013-10-01,02:50:00,49.54
2013-10-01,03:00:00,49.54
2013-10-01,03:10:00,49.53
2013-10-01,03:20:00,49.54
2013-10-01,03:30:00,49.53
2013-10-01,03:40:00,49.52
2013-10-01,03:50:00,49.53
2013-10-01,04:00:00,49.52
2013-10-01,04:10:00,49.51
2013-10-01,04:20:00,49.5
2013-10-01,04:30:00,49.51
2013-10-01,04:40:00,49.51
2013-10-01,04:50:00,49.49
2013-10-01,05:00:00,49.5
2013-10-01,05:10:00,49.48
2013-10-01,05:20:00,49.49
2013-10-01,05:30:00,49.49
2013-10-01,05:40:00,49.48
2013-10-01,05:50:00,49.46
2013-10-01,06:00:00,49.47
2013-10-01,06:10:00,49.48
2013-10-01,06:20:00,49.46
2013-10-01,06:30:00,49.46
2013-10-01,06:40:00,49.44
2013-10-01,06:50:00,49.44
2013-10-01,07:00:00,49.45
2013-10-01,07:10:00,49.45
2013-10-01,07:20:00,49.44
2013-10-01,07:30:00,49.43
2013-10-01,07:40:00,49.42
2013-10-01,07:50:00,49.43
2013-10-01,08:00:00,49.41
2013-10-01,08:10:00,49.42
2013-10-01,08:20:00,49.41
2013-10-01,08:30:00,49.4
2013-10-01,08:40:00,49.4
2013-10-01,08:50:00,49.4
2013-10-01,09:00:00,49.39
2013-10-01,09:10:00,49.38
2013-10-01,09:20:00,49.38
2013-10-01,09:30:00,49.38
2013-10-01,09:40:00,49.37
2013-10-01,09:50:00,49.36
2013-10-01,10:00:00,49.36
2013-10-01,10:10:00,49.35
2013-10-01,10:20:00,49.34
2013-10-01,10:30:00,49.35
2013-10-01,10:40:00,49.33
2013-10-01,10:50:00,49.33
2013-10-01,11:00:00,49.31
2013-10-01,11:10:00,49.32
2013-10-01,11:20:00,49.31
2013-10-01,11:30:00,49.31
2013-10-01,11:40:00,49.29
2013-10-01,11:50:00,49.29
2013-10-01,12:00:00,49.27
2013-10-01,12:10:00,49.27
2013-10-01,12:20:00,49.27
2013-10-01,12:30:00,49.25
2013-10-01,12:40:00,49.24
2013-10-01,12:50:00,49.24
2013-10-01,13:00:00,49.23
2013-10-01,13:10:00,49.22
2013-10-01,13:20:00,49.22
2013-10-01,13:30:00,49.21
2013-10-01,13:40:00,49.2
2013-10-01,13:50:00,49.2
2013-10-01,14:00:00,49.2
2013-10-01,14:10:00,49.18
2013-10-01,14:20:00,49.19
2013-10-01,14:30:00,49.18
2013-10-01,14:40:00,49.16
2013-10-01,14:50:00,49.17
2013-10-01,15:00:00,49.15
2013-10-01,15:10:00,49.13
2013-10-01,15:20:00,49.15
2013-10-01,15:30:00,49.14
2013-10-01,15:40:00,49.13
2013-10-01,15:50:00,49.13
2013-10-01,16:00:00,49.11
2013-10-01,16:10:00,49.09
2013-10-01,16:20:00,49.1
2013-10-01,16:30:00,49.1
2013-10-01,16:40:00,49.1
2013-10-01,16:50:00,49.07
2013-10-01,17:00:00,49.06
2013-10-01,17:10:00,49.07
2013-10-01,17:20:00,49.05
2013-10-01,17:30:00,49.06
2013-10-01,17:40:00,49.05
2013-10-01,17:50:00,49.04
2013-10-01,18:00:00,49.03
2013-10-01,18:10:00,49.03
2013-10-01,18:20:00,49.02
2013-10-01,18:30:00,49.02
2013-10-01,18:40:00,49.01
2013-10-01,18:50:00,48.99
2013-10-01,19:00:00,49
2013-10-01,19:10:00,48.98
2013-10-01,19:20:00,48.98
2013-10-01,19:30:00,48.97
2013-10-01,19:40:00,48.97
2013-10-01,19:50:00,48.96
2013-10-01,20:00:00,48.96
2013-10-01,20:10:00,48.94
2013-10-01,20:20:00,48.94
2013-10-01,20:30:00,48.93
2013-10-01,20:40:00,48.93
2013-10-01,20:50:00,48.91
2013-10-01,21:00:00,48.92
2013-10-01,21:10:00,48.9
2013-10-01,21:20:00,48.88
2013-10-01,21:30:00,48.89
2013-10-01,21:40:00,48.88
2013-10-01,21:50:00,48.88
2013-10-01,22:00:00,48.86
2013-10-01,22:10:00,48.85
2013-10-01,22:20:00,48.86
2013-10-01,22:30:00,48.85
2013-10-01,22:40:00,48.84
2013-10-01,22:50:00,48.83
2013-10-01,23:00:00,48.83
2013-10-01,23:10:00,48.82
2013-10-01,23:20:00,48.82
2013-10-01,23:30:00,48.81
2013-10-01,23:40:00,48.8
2013-10-01,23:50:00,48.79
2013-10-02,00:00:00,48.78
2013-10-02,00:10:00,48.78
2013-10-02,00:20:00,48.78
2013-10-02,00:30:00,48.76
2013-10-02,00:40:00,48.76
2013-10-02,00:50:00,48.76
2013-10-02,01:00:00,48.75
2013-10-02,01:10:00,48.74
2013-10-02,01:20:00,48.75
2013-10-02,01:30:00,48.73
2013-10-02,01:40:00,48.72
2013-10-02,01:50:00,48.71
2013-10-02,02:00:00,48.72
2013-10-02,02:10:00,48.7
2013-10-02,02:20:00,48.7
2013-10-02,02:30:00,48.7
2013-10-02,02:40:00,48.69
2013-10-02,02:50:00,48.69
2013-10-02,03:00:00,48.68
2013-10-02,03:10:00,48.66
2013-10-02,03:20:00,48.67
2013-10-02,03:30:00,48.67
2013-10-02,03:40:00,48.66
2013-10-02,03:50:00,48.65
2013-10-02,04:00:00,48.65
2013-10-02,04:10:00,48.65
2013-10-02,04:20:00,48.64
2013-10-02,04:30:00,48.63
2013-10-02,04:40:00,48.63
2013-10-02,04:50:00,48.62
2013-10-02,05:00:00,48.62
2013-10-02,05:10:00,48.61
2013-10-02,05:20:00,48.61
2013-10-02,05:30:00,48.6
2013-10-02,05:40:00,48.6
2013-10-02,05:50:00,48.59
2013-10-02,06:00:00,48.59
2013-10-02,06:10:00,48.59
2013-10-02,06:20:00,48.58
2013-10-02,06:30:00,48.57
2013-10-02,06:40:00,48.57
2013-10-02,06:50:00,48.57
2013-10-02,07:00:00,48.56
2013-10-02,07:10:00,48.55
2013-10-02,07:20:00,48.55
2013-10-02,07:30:00,48.55
2013-10-02,07:40:00,48.54
2013-10-02,07:50:00,48.53
2013-10-02,08:00:00,48.54
2013-10-02,08:10:00,48.5
2013-10-02,08:20:00,48.53
2013-10-02,08:30:00,48.51
2013-10-02,08:40:00,48.5
2013-10-02,08:50:00,48.5
2013-10-02,09:00:00,48.5
2013-10-02,09:10:00,48.5
2013-10-02,09:20:00,48.49
2013-10-02,09:30:00,48.49
2013-10-02,09:40:00,48.48
2013-10-02,09:50:00,48.48
2013-10-02,10:00:00,48.49
2013-10-02,10:10:00,48.49
2013-10-02,10:20:00,48.52
2013-10-02,10:30:00,48.52
2013-10-02,10:40:00,48.52
2013-10-02,10:50:00,48.52
2013-10-02,11:00:00,48.53
2013-10-02,11:10:00,48.52
2013-10-02,11:20:00,48.53
2013-10-02,11:30:00,48.54
2013-10-02,11:40:00,48.53
2013-10-02,11:50:00,48.53
2013-10-02,12:00:00,48.52
2013-10-02,12:10:00,48.54
2013-10-02,12:20:00,48.52
2013-10-02,12:30:00,48.53
2013-10-02,12:40:00,48.51
2013-10-02,12:50:00,48.52
2013-10-02,13:00:00,48.52
2013-10-02,13:10:00,48.52
2013-10-02,13:20:00,48.53
2013-10-02,13:30:00,48.52
2013-10-02,13:40:00,48.54
2013-10-02,13:50:00,48.53
2013-10-02,14:00:00,48.53
2013-10-02,14:10:00,48.51
2013-10-02,14:20:00,48.52
2013-10-02,14:30:00,48.51
2013-10-02,14:40:00,48.51
2013-10-02,14:50:00,48.49
2013-10-02,15:00:00,48.49
2013-10-02,15:10:00,48.47
2013-10-02,15:20:00,48.47
2013-10-02,15:30:00,48.47
2013-10-02,15:40:00,48.46
2013-10-02,15:50:00,48.45
2013-10-02,16:00:00,48.45
2013-10-02,16:10:00,48.44
2013-10-02,16:20:00,48.43
2013-10-02,16:30:00,48.43
2013-10-02,16:40:00,48.42
2013-10-02,16:50:00,48.41
2013-10-02,17:00:00,48.39
2013-10-02,17:10:00,48.4
2013-10-02,17:20:00,48.38
2013-10-02,17:30:00,48.37
2013-10-02,17:40:00,48.36
2013-10-02,17:50:00,48.36
2013-10-02,18:00:00,48.36
2013-10-02,18:10:00,48.36
2013-10-02,18:20:00,48.36
2013-10-02,18:30:00,48.36
2013-10-02,18:40:00,48.35
2013-10-02,18:50:00,48.34
2013-10-02,19:00:00,48.34
2013-10-02,19:10:00,48.33
2013-10-02,19:20:00,48.32
2013-10-02,19:30:00,48.32
2013-10-02,19:40:00,48.3
2013-10-02,19:50:00,48.3
2013-10-02,20:00:00,48.29
2013-10-02,20:10:00,48.28
2013-10-02,20:20:00,48.28
2013-10-02,20:30:00,48.27
2013-10-02,20:40:00,48.26
2013-10-02,20:50:00,48.26
2013-10-02,21:00:00,48.25
2013-10-02,21:10:00,48.25
2013-10-02,21:20:00,48.23
2013-10-02,21:30:00,48.23
2013-10-02,21:40:00,48.23
2013-10-02,21:50:00,48.23
2013-10-02,22:00:00,48.22
2013-10-02,22:10:00,48.21
2013-10-02,22:20:00,48.22
2013-10-02,22:30:00,48.21
2013-10-02,22:40:00,48.2
2013-10-02,22:50:00,48.2
2013-10-02,23:00:00,48.19
2013-10-02,23:10:00,48.18
2013-10-02,23:20:00,48.18
2013-10-02,23:30:00,48.16
2013-10-02,23:40:00,48.16
2013-10-02,23:50:00,48.16
2013-10-03,00:00:00,48.15
2013-10-03,00:10:00,48.15
2013-10-03,00:20:00,48.15
2013-10-03,00:30:00,48.14
2013-10-03,00:40:00,48.14
2013-10-03,00:50:00,48.14
2013-10-03,01:00:00,48.13
2013-10-03,01:10:00,48.12
2013-10-03,01:20:00,48.11
2013-10-03,01:30:00,48.11
2013-10-03,01:40:00,48.11
2013-10-03,01:50:00,48.1
2013-10-03,02:00:00,48.11
2013-10-03,02:10:00,48.1
2013-10-03,02:20:00,48.09
2013-10-03,02:30:00,48.09
2013-10-03,02:40:00,48.09
2013-10-03,02:50:00,48.08
2013-10-03,03:00:00,48.08
2013-10-03,03:10:00,48.07
2013-10-03,03:20:00,48.07
2013-10-03,03:30:00,48.07
2013-10-03,03:40:00,48.06
2013-10-03,03:50:00,48.06
2013-10-03,04:00:00,48.04
2013-10-03,04:10:00,48.05
2013-10-03,04:20:00,48.05
2013-10-03,04:30:00,48.05
2013-10-03,04:40:00,48.05
2013-10-03,04:50:00,48.04
2013-10-03,05:00:00,48.04
2013-10-03,05:10:00,48.03
2013-10-03,05:20:00,48.03
2013-10-03,05:30:00,48.03
2013-10-03,05:40:00,48.02
2013-10-03,05:50:00,48.03
2013-10-03,06:00:00,48.02
2013-10-03,06:10:00,48.02
2013-10-03,06:20:00,48.02
2013-10-03,06:30:00,48.02
2013-10-03,06:40:00,48.01
2013-10-03,06:50:00,48.01
2013-10-03,07:00:00,48
2013-10-03,07:10:00,48
2013-10-03,07:20:00,48
2013-10-03,07:30:00,48
2013-10-03,07:40:00,48
2013-10-03,07:50:00,47.99
2013-10-03,08:00:00,47.99
2013-10-03,08:10:00,47.99
2013-10-03,08:20:00,47.99
2013-10-03,08:30:00,47.99
2013-10-03,08:40:00,47.99
2013-10-03,08:50:00,47.99
2013-10-03,09:00:00,47.98
2013-10-03,09:10:00,47.98
2013-10-03,09:20:00,47.98
2013-10-03,09:30:00,47.97
2013-10-03,09:40:00,47.97
2013-10-03,09:50:00,47.97
2013-10-03,10:00:00,47.97
2013-10-03,10:10:00,47.97
2013-10-03,10:20:00,47.95
2013-10-03,10:30:00,47.97
2013-10-03,10:40:00,47.96
2013-10-03,10:50:00,47.95
2013-10-03,11:00:00,47.95
2013-10-03,11:10:00,47.95
2013-10-03,11:20:00,47.95
2013-10-03,11:30:00,47.95
2013-10-03,11:40:00,47.93
2013-10-03,11:50:00,47.94
2013-10-03,12:00:00,47.94
2013-10-03,12:10:00,47.93
2013-10-03,12:20:00,47.93
2013-10-03,12:30:00,47.92
2013-10-03,12:40:00,47.92
2013-10-03,12:50:00,47.91
2013-10-03,13:00:00,47.91
2013-10-03,13:10:00,47.9
2013-10-03,13:20:00,47.89
2013-10-03,13:30:00,47.9
2013-10-03,13:40:00,47.88
2013-10-03,13:50:00,47.89
2013-10-03,14:00:00,47.87
2013-10-03,14:10:00,47.87
2013-10-03,14:20:00,47.87
2013-10-03,14:30:00,47.87
2013-10-03,14:40:00,47.85
2013-10-03,14:50:00,47.85
2013-10-03,15:00:00,47.84
2013-10-03,15:10:00,47.84
2013-10-03,15:20:00,47.83
2013-10-03,15:30:00,47.83
2013-10-03,15:40:00,47.83
2013-10-03,15:50:00,47.81
2013-10-03,16:00:00,47.81
2013-10-03,16:10:00,47.8
2013-10-03,16:20:00,47.79
2013-10-03,16:30:00,47.79
2013-10-03,16:40:00,47.78
2013-10-03,16:50:00,47.78
2013-10-03,17:00:00,47.77
2013-10-03,17:10:00,47.76
2013-10-03,17:20:00,47.75
2013-10-03,17:30:00,47.74
2013-10-03,17:40:00,47.74
2013-10-03,17:50:00,47.73
2013-10-03,18:00:00,47.72
2013-10-03,18:10:00,47.72
2013-10-03,18:20:00,47.71
2013-10-03,18:30:00,47.71
2013-10-03,18:40:00,47.69
2013-10-03,18:50:00,47.69
2013-10-03,19:00:00,47.68
2013-10-03,19:10:00,47.68
2013-10-03,19:20:00,47.67
2013-10-03,19:30:00,47.67
2013-10-03,19:40:00,47.66
2013-10-03,19:50:00,47.65
2013-10-03,20:00:00,47.64
2013-10-03,20:10:00,47.64
2013-10-03,20:20:00,47.63
2013-10-03,20:30:00,47.63
2013-10-03,20:40:00,47.62
2013-10-03,20:50:00,47.61
2013-10-03,21:00:00,47.6
2013-10-03,21:10:00,47.6
2013-10-03,21:20:00,47.6
2013-10-03,21:30:00,47.59
2013-10-03,21:40:00,47.58
2013-10-03,21:50:00,47.57
2013-10-03,22:00:00,47.58
2013-10-03,22:10:00,47.56
2013-10-03,22:20:00,47.55
2013-10-03,22:30:00,47.55
2013-10-03,22:40:00,47.55
2013-10-03,22:50:00,47.54
2013-10-03,23:00:00,47.54
2013-10-03,23:10:00,47.54
2013-10-03,23:20:00,47.52
2013-10-03,23:30:00,47.52
2013-10-03,23:40:00,47.51
2013-10-03,23:50:00,47.51
2013-10-04,00:00:00,47.51
2013-10-04,00:10:00,47.5
2013-10-04,00:20:00,47.5
2013-10-04,00:30:00,47.49
2013-10-04,00:40:00,47.49
2013-10-04,00:50:00,47.48
2013-10-04,01:00:00,47.48
2013-10-04,01:10:00,47.48
2013-10-04,01:20:00,47.47
2013-10-04,01:30:00,47.47
2013-10-04,01:40:00,47.47
2013-10-04,01:50:00,47.47
2013-10-04,02:00:00,47.46
2013-10-04,02:10:00,47.46
2013-10-04,02:20:00,47.45
2013-10-04,02:30:00,47.45
2013-10-04,02:40:00,47.45
2013-10-04,02:50:00,47.44
2013-10-04,03:00:00,47.45
2013-10-04,03:10:00,47.43
2013-10-04,03:20:00,47.44
2013-10-04,03:30:00,47.44
2013-10-04,03:40:00,47.42
2013-10-04,03:50:00,47.43
2013-10-04,04:00:00,47.43
2013-10-04,04:10:00,47.43
2013-10-04,04:20:00,47.42
2013-10-04,04:30:00,47.42
2013-10-04,04:40:00,47.42
2013-10-04,04:50:00,47.42
2013-10-04,05:00:00,47.41
2013-10-04,05:10:00,47.41
2013-10-04,05:20:00,47.42
2013-10-04,05:30:00,47.4
2013-10-04,05:40:00,47.4
2013-10-04,05:50:00,47.41
2013-10-04,06:00:00,47.41
2013-10-04,06:10:00,47.4
2013-10-04,06:20:00,47.39
2013-10-04,06:30:00,47.39
2013-10-04,06:40:00,47.39
2013-10-04,06:50:00,47.4
2013-10-04,07:00:00,47.38
2013-10-04,07:10:00,47.38
2013-10-04,07:20:00,47.39
2013-10-04,07:30:00,47.39
2013-10-04,07:40:00,47.39
2013-10-04,07:50:00,47.38
2013-10-04,08:00:00,47.39
2013-10-04,08:10:00,47.39
2013-10-04,08:20:00,47.38
2013-10-04,08:30:00,47.37
2013-10-04,08:40:00,47.38
2013-10-04,08:50:00,47.38
2013-10-04,09:00:00,47.37
2013-10-04,09:10:00,47.38
2013-10-04,09:20:00,47.37
2013-10-04,09:30:00,47.37
2013-10-04,09:40:00,47.36
2013-10-04,09:50:00,47.36
2013-10-04,10:00:00,47.38
2013-10-04,10:10:00,47.37
2013-10-04,10:20:00,47.37
2013-10-04,10:30:00,47.38
2013-10-04,10:40:00,47.38
2013-10-04,10:50:00,47.37
2013-10-04,11:00:00,47.36
2013-10-04,11:10:00,47.37
2013-10-04,11:20:00,47.38
2013-10-04,11:30:00,47.38
2013-10-04,11:40:00,47.38
2013-10-04,11:50:00,47.39
2013-10-04,12:00:00,47.39
2013-10-04,12:10:00,47.38
2013-10-04,12:20:00,47.4
2013-10-04,12:30:00,47.4
2013-10-04,12:40:00,47.4
2013-10-04,12:50:00,47.41
2013-10-04,13:00:00,47.41
2013-10-04,13:10:00,47.41
2013-10-04,13:20:00,47.4
2013-10-04,13:30:00,47.42
2013-10-04,13:40:00,47.43
2013-10-04,13:50:00,47.43
2013-10-04,14:00:00,47.43
2013-10-04,14:10:00,47.44
2013-10-04,14:20:00,47.44
2013-10-04,14:30:00,47.46
2013-10-04,14:40:00,47.47
2013-10-04,14:50:00,47.47
2013-10-04,15:00:00,47.47
2013-10-04,15:10:00,47.48
2013-10-04,15:20:00,47.48
2013-10-04,15:30:00,47.49
2013-10-04,15:40:00,47.5
2013-10-04,15:50:00,47.51
2013-10-04,16:00:00,47.51
2013-10-04,16:10:00,47.52
2013-10-04,16:20:00,47.53
2013-10-04,16:30:00,47.57
2013-10-04,16:40:00,47.6
2013-10-04,16:50:00,47.63
2013-10-04,17:00:00,47.65
2013-10-04,17:10:00,47.68
2013-10-04,17:20:00,47.7
2013-10-04,17:30:00,47.72
2013-10-04,17:40:00,47.75
2013-10-04,17:50:00,47.76
2013-10-04,18:00:00,47.79
2013-10-04,18:10:00,47.81
2013-10-04,18:20:00,47.83
2013-10-04,18:30:00,47.85
2013-10-04,18:40:00,47.87
2013-10-04,18:50:00,47.89
2013-10-04,19:00:00,47.91
2013-10-04,19:10:00,47.9
2013-10-04,19:20:00,47.91
2013-10-04,19:30:00,47.91
2013-10-04,19:40:00,47.93
2013-10-04,19:50:00,47.93
2013-10-04,20:00:00,47.95
2013-10-04,20:10:00,47.95
2013-10-04,20:20:00,47.97
2013-10-04,20:30:00,47.97
2013-10-04,20:40:00,47.98
2013-10-04,20:50:00,47.99
2013-10-04,21:00:00,48
2013-10-04,21:10:00,48.01
2013-10-04,21:20:00,48.02
2013-10-04,21:30:00,48.03
2013-10-04,21:40:00,48.03
2013-10-04,21:50:00,48.05
2013-10-04,22:00:00,48.05
2013-10-04,22:10:00,48.05
2013-10-04,22:20:00,48.06
2013-10-04,22:30:00,48.08
2013-10-04,22:40:00,48.09
2013-10-04,22:50:00,48.08
2013-10-04,23:00:00,48.1
2013-10-04,23:10:00,48.11
2013-10-04,23:20:00,48.12
2013-10-04,23:30:00,48.13
2013-10-04,23:40:00,48.12
2013-10-04,23:50:00,48.13
2013-10-05,00:00:00,48.14
2013-10-05,00:10:00,48.15
2013-10-05,00:20:00,48.16
2013-10-05,00:30:00,48.17
2013-10-05,00:40:00,48.17
2013-10-05,00:50:00,48.17
2013-10-05,01:00:00,48.18
2013-10-05,01:10:00,48.19
2013-10-05,01:20:00,48.2
2013-10-05,01:30:00,48.2
2013-10-05,01:40:00,48.2
2013-10-05,01:50:00,48.21
2013-10-05,02:00:00,48.22
2013-10-05,02:10:00,48.22
2013-10-05,02:20:00,48.23
2013-10-05,02:30:00,48.24
2013-10-05,02:40:00,48.24
2013-10-05,02:50:00,48.25
2013-10-05,03:00:00,48.26
2013-10-05,03:10:00,48.25
2013-10-05,03:20:00,48.26
2013-10-05,03:30:00,48.27
2013-10-05,03:40:00,48.27
2013-10-05,03:50:00,48.28
2013-10-05,04:00:00,48.28
2013-10-05,04:10:00,48.29
2013-10-05,04:20:00,48.29
2013-10-05,04:30:00,48.29
2013-10-05,04:40:00,48.3
2013-10-05,04:50:00,48.3
2013-10-05,05:00:00,48.31
2013-10-05,05:10:00,48.3
2013-10-05,05:20:00,48.29
2013-10-05,05:30:00,48.29
2013-10-05,05:40:00,48.29
2013-10-05,05:50:00,48.29
2013-10-05,06:00:00,48.29
2013-10-05,06:10:00,48.3
2013-10-05,06:20:00,48.28
2013-10-05,06:30:00,48.29
2013-10-05,06:40:00,48.28
2013-10-05,06:50:00,48.28
2013-10-05,07:00:00,48.29
2013-10-05,07:10:00,48.29
2013-10-05,07:20:00,48.29
2013-10-05,07:30:00,48.29
2013-10-05,07:40:00,48.29
2013-10-05,07:50:00,48.28
2013-10-05,08:00:00,48.28
2013-10-05,08:10:00,48.29
2013-10-05,08:20:00,48.29
2013-10-05,08:30:00,48.29
2013-10-05,08:40:00,48.29
2013-10-05,08:50:00,48.29
2013-10-05,09:00:00,48.29
2013-10-05,09:10:00,48.29
2013-10-05,09:20:00,48.28
2013-10-05,09:30:00,48.28
2013-10-05,09:40:00,48.29
2013-10-05,09:50:00,48.29
2013-10-05,10:00:00,48.29
2013-10-05,10:10:00,48.29
2013-10-05,10:20:00,48.3
2013-10-05,10:30:00,48.28
2013-10-05,10:40:00,48.29
2013-10-05,10:50:00,48.29
2013-10-05,11:00:00,48.29
2013-10-05,11:10:00,48.29
2013-10-05,11:20:00,48.29
2013-10-05,11:30:00,48.3
2013-10-05,11:40:00,48.29
2013-10-05,11:50:00,48.29
2013-10-05,12:00:00,48.29
2013-10-05,12:10:00,48.29
2013-10-05,12:20:00,48.29
2013-10-05,12:30:00,48.29
2013-10-05,12:40:00,48.3
2013-10-05,12:50:00,48.29
2013-10-05,13:00:00,48.29
2013-10-05,13:10:00,48.29
2013-10-05,13:20:00,48.29
2013-10-05,13:30:00,48.3
2013-10-05,13:40:00,48.29
2013-10-05,13:50:00,48.28
2013-10-05,14:00:00,48.29
2013-10-05,14:10:00,48.29
2013-10-05,14:20:00,48.29
2013-10-05,14:30:00,48.29
2013-10-05,14:40:00,48.29
2013-10-05,14:50:00,48.29
2013-10-05,15:00:00,48.29
2013-10-05,15:10:00,48.29
2013-10-05,15:20:00,48.3
2013-10-05,15:30:00,48.28
2013-10-05,15:40:00,48.29
2013-10-05,15:50:00,48.29
2013-10-05,16:00:00,48.29
2013-10-05,16:10:00,48.28
2013-10-05,16:20:00,48.28
2013-10-05,16:30:00,48.29
2013-10-05,16:40:00,48.28
2013-10-05,16:50:00,48.28
2013-10-05,17:00:00,48.28
2013-10-05,17:10:00,48.28
2013-10-05,17:20:00,48.29
2013-10-05,17:30:00,48.28
2013-10-05,17:40:00,48.29
2013-10-05,17:50:00,48.28
2013-10-05,18:00:00,48.28
2013-10-05,18:10:00,48.29
2013-10-05,18:20:00,48.28
2013-10-05,18:30:00,48.28
2013-10-05,18:40:00,48.28
2013-10-05,18:50:00,48.28
2013-10-05,19:00:00,48.28
2013-10-05,19:10:00,48.28
2013-10-05,19:20:00,48.28
2013-10-05,19:30:00,48.28
2013-10-05,19:40:00,48.28
2013-10-05,19:50:00,48.29
2013-10-05,20:00:00,48.28
2013-10-05,20:10:00,48.27
2013-10-05,20:20:00,48.28
2013-10-05,20:30:00,48.28
2013-10-05,20:40:00,48.28
2013-10-05,20:50:00,48.27
2013-10-05,21:00:00,48.27
2013-10-05,21:10:00,48.27
2013-10-05,21:20:00,48.27
2013-10-05,21:30:00,48.27
2013-10-05,21:40:00,48.27
2013-10-05,21:50:00,48.28
2013-10-05,22:00:00,48.28
2013-10-05,22:10:00,48.27
2013-10-05,22:20:00,48.27
2013-10-05,22:30:00,48.27
2013-10-05,22:40:00,48.27
2013-10-05,22:50:00,48.27
2013-10-05,23:00:00,48.26
2013-10-05,23:10:00,48.27
2013-10-05,23:20:00,48.27
2013-10-05,23:30:00,48.26
2013-10-05,23:40:00,48.28
2013-10-05,23:50:00,48.27
2013-10-06,00:00:00,48.27
2013-10-06,00:10:00,48.27
2013-10-06,00:20:00,48.27
2013-10-06,00:30:00,48.27
2013-10-06,00:40:00,48.27
2013-10-06,00:50:00,48.27
2013-10-06,01:00:00,48.26
2013-10-06,01:10:00,48.26
2013-10-06,01:20:00,48.27
2013-10-06,01:30:00,48.27
2013-10-06,01:40:00,48.25
2013-10-06,01:50:00,48.26
2013-10-06,02:00:00,48.26
2013-10-06,02:10:00,48.27
2013-10-06,02:20:00,48.27
2013-10-06,02:30:00,48.27
2013-10-06,02:40:00,48.26
2013-10-06,02:50:00,48.27
2013-10-06,03:00:00,48.26
2013-10-06,03:10:00,48.27
2013-10-06,03:20:00,48.27
2013-10-06,03:30:00,48.27
2013-10-06,03:40:00,48.27
2013-10-06,03:50:00,48.26
2013-10-06,04:00:00,48.26
2013-10-06,04:10:00,48.27
2013-10-06,04:20:00,48.27
2013-10-06,04:30:00,48.26
2013-10-06,04:40:00,48.27
2013-10-06,04:50:00,48.27
2013-10-06,05:00:00,48.27
2013-10-06,05:10:00,48.26
2013-10-06,05:20:00,48.26
2013-10-06,05:30:00,48.27
2013-10-06,05:40:00,48.27
2013-10-06,05:50:00,48.26
2013-10-06,06:00:00,48.26
2013-10-06,06:10:00,48.27
2013-10-06,06:20:00,48.26
2013-10-06,06:30:00,48.26
2013-10-06,06:40:00,48.27
2013-10-06,06:50:00,48.27
2013-10-06,07:00:00,48.27
2013-10-06,07:10:00,48.27
2013-10-06,07:20:00,48.27
2013-10-06,07:30:00,48.27
2013-10-06,07:40:00,48.27
2013-10-06,07:50:00,48.27
2013-10-06,08:00:00,48.27
2013-10-06,08:10:00,48.27
2013-10-06,08:20:00,48.27
2013-10-06,08:30:00,48.27
2013-10-06,08:40:00,48.28
2013-10-06,08:50:00,48.27
2013-10-06,09:00:00,48.27
2013-10-06,09:10:00,48.28
2013-10-06,09:20:00,48.27
2013-10-06,09:30:00,48.27
2013-10-06,09:40:00,48.27
2013-10-06,09:50:00,48.28
2013-10-06,10:00:00,48.28
2013-10-06,10:10:00,48.28
2013-10-06,10:20:00,48.28
2013-10-06,10:30:00,48.28
2013-10-06,10:40:00,48.29
2013-10-06,10:50:00,48.28
2013-10-06,11:00:00,48.29
2013-10-06,11:10:00,48.29
2013-10-06,11:20:00,48.28
2013-10-06,11:30:00,48.3
2013-10-06,11:40:00,48.29
2013-10-06,11:50:00,48.29
2013-10-06,12:00:00,48.29
2013-10-06,12:10:00,48.29
2013-10-06,12:20:00,48.31
2013-10-06,12:30:00,48.3
2013-10-06,12:40:00,48.3
2013-10-06,12:50:00,48.31
2013-10-06,13:00:00,48.31
2013-10-06,13:10:00,48.31
2013-10-06,13:20:00,48.32
2013-10-06,13:30:00,48.32
2013-10-06,13:40:00,48.33
2013-10-06,13:50:00,48.34
2013-10-06,14:00:00,48.34
2013-10-06,14:10:00,48.34
2013-10-06,14:20:00,48.36
2013-10-06,14:30:00,48.37
2013-10-06,14:40:00,48.37
2013-10-06,14:50:00,48.38
2013-10-06,15:00:00,48.38
2013-10-06,15:10:00,48.38
2013-10-06,15:20:00,48.4
2013-10-06,15:30:00,48.41
2013-10-06,15:40:00,48.41
2013-10-06,15:50:00,48.42
2013-10-06,16:00:00,48.42
2013-10-06,16:10:00,48.44
2013-10-06,16:20:00,48.44
2013-10-06,16:30:00,48.45
2013-10-06,16:40:00,48.46
2013-10-06,16:50:00,48.48
2013-10-06,17:00:00,48.48
2013-10-06,17:10:00,48.49
2013-10-06,17:20:00,48.5
2013-10-06,17:30:00,48.51
2013-10-06,17:40:00,48.52
2013-10-06,17:50:00,48.52
2013-10-06,18:00:00,48.53
2013-10-06,18:10:00,48.52
2013-10-06,18:20:00,48.53
2013-10-06,18:30:00,48.53
2013-10-06,18:40:00,48.54
2013-10-06,18:50:00,48.55
2013-10-06,19:00:00,48.55
2013-10-06,19:10:00,48.54
2013-10-06,19:20:00,48.55
2013-10-06,19:30:00,48.57
2013-10-06,19:40:00,48.58
2013-10-06,19:50:00,48.56
2013-10-06,20:00:00,48.57
2013-10-06,20:10:00,48.58
2013-10-06,20:20:00,48.58
2013-10-06,20:30:00,48.59
2013-10-06,20:40:00,48.59
2013-10-06,20:50:00,48.6
2013-10-06,21:00:00,48.59
2013-10-06,21:10:00,48.59
2013-10-06,21:20:00,48.59
2013-10-06,21:30:00,48.59
2013-10-06,21:40:00,48.59
2013-10-06,21:50:00,48.59
2013-10-06,22:00:00,48.58
2013-10-06,22:10:00,48.59
2013-10-06,22:20:00,48.59
2013-10-06,22:30:00,48.58
2013-10-06,22:40:00,48.58
2013-10-06,22:50:00,48.59
2013-10-06,23:00:00,48.58
2013-10-06,23:10:00,48.58
2013-10-06,23:20:00,48.58
2013-10-06,23:30:00,48.58
2013-10-06,23:40:00,48.57
2013-10-06,23:50:00,48.57
2013-10-07,00:00:00,48.57
2013-10-07,00:10:00,48.58
2013-10-07,00:20:00,48.58
2013-10-07,00:30:00,48.57
2013-10-07,00:40:00,48.56
2013-10-07,00:50:00,48.56
2013-10-07,01:00:00,48.56
2013-10-07,01:10:00,48.55
2013-10-07,01:20:00,48.54
2013-10-07,01:30:00,48.54
2013-10-07,01:40:00,48.54
2013-10-07,01:50:00,48.54
2013-10-07,02:00:00,48.53
2013-10-07,02:10:00,48.52
2013-10-07,02:20:00,48.53
2013-10-07,02:30:00,48.52
2013-10-07,02:40:00,48.51
2013-10-07,02:50:00,48.51
2013-10-07,03:00:00,48.52
2013-10-07,03:10:00,48.51
2013-10-07,03:20:00,48.5
2013-10-07,03:30:00,48.49
2013-10-07,03:40:00,48.49
2013-10-07,03:50:00,48.48
2013-10-07,04:00:00,48.49
2013-10-07,04:10:00,48.47
2013-10-07,04:20:00,48.48
2013-10-07,04:30:00,48.47
2013-10-07,04:40:00,48.47
2013-10-07,04:50:00,48.46
2013-10-07,05:00:00,48.45
2013-10-07,05:10:00,48.45
2013-10-07,05:20:00,48.44
2013-10-07,05:30:00,48.44
2013-10-07,05:40:00,48.44
2013-10-07,05:50:00,48.44
2013-10-07,06:00:00,48.43
2013-10-07,06:10:00,48.43
2013-10-07,06:20:00,48.42
2013-10-07,06:30:00,48.42
2013-10-07,06:40:00,48.4
2013-10-07,06:50:00,48.41
2013-10-07,07:00:00,48.4
2013-10-07,07:10:00,48.4
2013-10-07,07:20:00,48.39
2013-10-07,07:30:00,48.39
2013-10-07,07:40:00,48.38
2013-10-07,07:50:00,48.38
2013-10-07,08:00:00,48.38
2013-10-07,08:10:00,48.38
2013-10-07,08:20:00,48.38
2013-10-07,08:30:00,48.37
2013-10-07,08:40:00,48.37
2013-10-07,08:50:00,48.36
2013-10-07,09:00:00,48.36
2013-10-07,09:10:00,48.35
2013-10-07,09:20:00,48.35
2013-10-07,09:30:00,48.34
2013-10-07,09:40:00,48.34
2013-10-07,09:50:00,48.32
2013-10-07,10:00:00,48.34
2013-10-07,10:10:00,48.32